Welcome to the New NWS' Forecast!
Most changes are behind the scenes, but click here for differences you might notice.
Latest weather observations around

Cincinnati, Cincinnati Municipal Airport Lunken Field (KLUK)

Using English Units (Switch to International System of Units)
Date/ Time (EDT) Wind (mph) Vis. (mi) Weather Sky Cond. Temp (°F) Rel. Humidity Wind Chill (°F) Heat Index (°F) Pressure Precip. (in)
Air Dwpt 6 hour Altimeter (inHg) Sea level (inHg) 1 hr 3 hr 6 hr
Max Min
Oct 18 00:53 NNE 6 10 Clear CLR 42 33     70% 38   30.48 30.48      
Oct 17 23:53 NNE 6 10 Clear CLR 43 35     73% 39   30.46 30.47      
Oct 17 22:53 N 8 10 Clear CLR 46 34     63% 42   30.44 30.44      
Oct 17 21:53 N 8 10 Clear   48 35     61% 44   30.41 30.41      
Oct 17 20:53 6 10 Clear CLR 50 35     56%     30.38 30.38      
Oct 17 19:53 NNW 8 10 Clear CLR 52 33     48%     30.35 30.36      
Oct 17 18:53 NW 6 10 Clear CLR 56 31     38%     30.32 30.32      
Oct 17 17:53 NW 10 10 Clear CLR 59 33     37%     30.28 30.29      
Oct 17 16:53 NW 14 10 Clear CLR 61 32     33%     30.26 30.26      
Oct 17 15:53 W 16 10 Clear CLR 62 34     35%     30.25 30.25      
Oct 17 14:53 W 14 10 Clear CLR 63 38     40%     30.23 30.23      
Oct 17 13:53 WSW 13 10 Clear CLR 61 41     48%     30.24 30.24      
Oct 17 12:53 WSW 11 10 Clear CLR 59 44     58%     30.26 30.26      
Oct 17 11:53 SW 9 10 Clear CLR 55 43     64%     30.27 30.27      
Oct 17 10:53 WSW 8 10 Clear CLR 51 43     74%     30.27 30.27      
Oct 17 09:53 WSW 8 10 Clear CLR 48 41     77% 44   30.27 30.27      
Oct 17 08:53 S 7 10 Clear CLR 44 41     89% 40   30.25 30.25      
Oct 17 07:53 S 7 10 Clear CLR 39 38     96% 34   30.23 30.24      
Oct 17 06:53 SW 5 10 Clear CLR 41 38     89% 38   30.22 30.23      
Oct 17 05:53 SW 9 10 Clear CLR 42 38     85% 37   30.2 30.21      
Oct 17 04:53 SW 6 10 Clear CLR 42 38     85% 38   30.19 30.2      
Oct 17 03:53 S 6 10 Clear CLR 42 38     85% 38   30.2 30.2      
Oct 17 02:53 SW 7 10 Clear CLR 43 39     86% 39   30.21 30.22      
Oct 17 01:53 WSW 8 10 Clear CLR 44 39     82% 40   30.22 30.22      
Oct 16 23:53 SSW 7 10 Clear CLR 44 39     82% 40   30.21 30.21      
Oct 16 22:53 SW 8 10 Clear CLR 44 39     82% 40   30.2 30.2      
Oct 16 21:53 SW 7 10 Clear CLR 45 40     82% 41   30.19 30.19      
Oct 16 20:53 S 9 10 Clear CLR 45 41     86% 40   30.17 30.17      
Oct 16 19:53 S 6 10 Clear   45 40     82% 42   30.17 30.17      
Oct 16 18:53 SSW 7 10 Clear CLR 48 40     73% 45   30.17 30.17      
Oct 16 17:53 SSW 10 10 Clear CLR 51 37     59%     30.17 30.17      
Oct 16 16:53 SW 9 10 Clear CLR 53 38     56%     30.18 30.18      
Oct 16 15:53 SSW 9 10 Clear CLR 54 38     55%     30.18 30.18      
Oct 16 14:53 S 8 10 Clear CLR 54 37     53%     30.21 30.21      
Oct 16 13:53 SW 8 10 Clear CLR 54 39     57%     30.24 30.24      
Oct 16 12:53 ESE 5 10 Clear CLR 50 39     66%     30.26 30.27      
Oct 16 11:53 Calm 10 Clear CLR 48        %     30.3 30.3      
Oct 16 10:53 Calm 10 Clear CLR 46        %     30.32 30.32      
Oct 16 09:53 Calm 10 Clear CLR 43        %     30.33 30.33      
Oct 16 08:53 Calm 10 Clear CLR 39        %     30.32 30.33      
Oct 16 07:53 Calm 10 Patchy Fog CLR 38        %     30.31 30.31      
Oct 16 06:53 Calm 10 Clear CLR 39        %     30.32 30.32      
Oct 16 05:53 Calm 10 Clear CLR 39        %     30.32 30.32      
Oct 16 04:53 NNE 3 10 Clear CLR 39        % 37   30.3 30.31      
Oct 16 03:53 Calm 10 Clear CLR 42        %     30.31 30.31      
Oct 16 02:53 Calm 10 Clear CLR 42        %     30.3 30.3      
Oct 16 01:53 NE 3 10 Clear CLR 42        % 40   30.29 30.29      
Oct 16 00:53 Calm 10 Clear CLR 42        %     30.31 30.32      
Oct 15 23:53 Calm 10 Clear CLR 44 40     85%     30.3 30.3      
Oct 15 22:53 3 10 Clear CLR 45 39     80% 44   30.29 30.29      
Oct 15 21:53 NW 6 10 Clear CLR 45 39     80% 42   30.29 30.29      
Oct 15 20:53 WNW 7 10 Partly Cloudy SCT023 47 41     80% 44   30.28 30.28      
Oct 15 19:53 NW 7 10 Partly Cloudy SCT028 49 43     80% 46   30.24 30.24      
Oct 15 18:53 NW 9 10 Mostly Cloudy BKN028 BKN070 50 45     83%     30.22 30.21      
Oct 15 17:53 NNW 10 10 Cloudy FEW024 BKN029 OVC065 53 47     80%     30.18 30.18      
Oct 15 16:53 NW 6 10 Cloudy FEW023 BKN029 OVC065 54 47     77%     30.16 30.16      
Oct 15 15:53 NW 8 10 Cloudy BKN022 OVC034 54 48     80%     30.16 30.16      
Oct 15 14:53 NW 9 10 Cloudy OVC018 54 49     83%     30.14 30.14      
Oct 15 13:53 WNW 6 10 Cloudy OVC016 55 50     83%     30.13 30.13     0
Oct 15 12:53 NW 10 6 Fog/Mist OVC013 56 54     93%     30.13 30.12 0    
Oct 15 11:53 W 9 6 Light Rain and Fog/Mist SCT017 BKN022 OVC049 56 55     97%     30.11 30.11 0    
Oct 15 10:53 W 13 4 Light Rain and Fog/Mist BKN011 OVC017 57 56     96%     30.09 30.09 0 0  
Oct 15 09:53 W 10 6 Fog/Mist BKN011 OVC015 59 57     93%     30.06 30.05 0    
Oct 15 08:53 WSW 10 6 Light Rain and Fog/Mist BKN008 OVC013 59 58     96%     30.04 30.03 0    
Oct 15 08:36 W 11 6 Light Rain and Fog/Mist BKN008 OVC013 60 59     96%     30.03   0    
Oct 15 07:53 SSW 7 5 Light Rain and Fog/Mist BKN010 OVC095 59 59     100%     30 30 0   0
Oct 15 07:35 WSW 6 5 Light Rain and Fog/Mist BKN010 OVC075 59        %     30   0    
Oct 15 07:03 SSW 5 7 Light Rain SCT010 SCT023 OVC090 59 59     100%     29.99   0    
Oct 15 06:53 S 8 7 Light Rain SCT010 BKN023 OVC090 59 59     100%     29.99 29.98 0    
Oct 15 06:10 SW 7 10 Light Rain SCT008 SCT030 OVC090 59 59     100%     30   0    
Oct 15 05:53 WSW 8 7 Light Rain BKN006 BKN031 OVC095 59 59     100%     29.99 29.99 0    
Oct 15 05:29 WSW 8 10 Light Rain OVC006 59 59     100%     30   0    
Oct 15 05:05 W 6 5 Fog/Mist OVC003 59 59     100%     29.98        
Oct 15 04:53 Calm 2.5 Fog/Mist OVC003 57 57     100%     29.98 29.97   0  
Oct 15 04:30 Calm 1.5 Fog/Mist OVC003 57 57     100%     29.97        
Oct 15 04:21 Calm 2 Fog/Mist OVC003 57 57     100%     29.97        
Oct 15 03:53 Calm 1.25 Fog/Mist OVC004 57        %     29.97 29.97 0    
Oct 15 02:50 Calm 1.75 Fog/Mist OVC003 56        %     29.98 29.98 0    
Oct 15 02:49 Calm 1.75 Fog/Mist OVC003 55        %     29.98   0    
Oct 15 02:43 Calm 2.5 Fog/Mist OVC005 56        %     29.99   0    
Oct 15 02:14 Calm 3 Fog/Mist OVC005 56        %     29.98        
Oct 15 01:53 Calm 2.5 Fog/Mist OVC004 56        %     29.98 29.98 0   0
Oct 15 01:34 Calm 2.5 Fog/Mist OVC004 55        %     29.98   0    
Oct 15 01:03 Calm 2.5 Light Rain and Fog/Mist   55        %     29.99   0    
Oct 15 00:53 Calm 3 Fog/Mist   55        %     29.99 29.99 0    
Oct 15 00:01 Calm 3 Fog/Mist OVC005 55 55     100%     30        
Oct 14 23:53 Calm 2.5 Fog/Mist OVC005 55 55     100%     30 30 0    
Oct 14 23:06 Calm 3 Light Rain and Fog/Mist OVC005 54 54     100%     30   0    
Oct 14 22:53 Calm 2 Light Rain and Fog/Mist OVC005 54 54     100%     30 30 0 0  
Oct 14 21:53 Calm 2.5 Fog/Mist OVC006 54 54     100%     30 30      
Oct 14 20:53 NNE 3 2 Fog/Mist OVC006 54 54     100%     30.01 30.01      
Oct 14 19:53 N 5 3 Fog/Mist OVC006 53 53     100%     30.01 30.01     0
Oct 14 18:53 NNE 3 2 Fog/Mist OVC008 53 53     100%     30.01 30.01      
Oct 14 17:53 3 2 Fog/Mist OVC008 53 53     100%     30.01 30.01      
Oct 14 16:53 Calm 2 Fog/Mist OVC007 53 53     100%     30.01 30.01   0  
Oct 14 15:53 ESE 5 3 Fog/Mist OVC009 53 53     100%     30.03 30.03 0    
Oct 14 14:53 5 2 Light Rain and Fog/Mist OVC008 53 53     100%     30.04 30.04 0    
Oct 14 13:53 ESE 3 2 Light Rain and Fog/Mist OVC008 52 52     100%     30.07 30.08 0   0
Oct 14 13:49 E 5 1.75 Light Rain and Fog/Mist OVC008 52 52     100%     30.08   0    
Oct 14 12:53 SE 3 5 Fog/Mist OVC009 52 50     93%     30.1 30.11      
Oct 14 11:53 E 6 10 Cloudy OVC008 51 49     92%     30.12 30.12      
Oct 14 10:53 E 3 10 Cloudy OVC008 49 48     97% 48   30.12 30.12 0 0  
Oct 14 10:18 Calm 10 Cloudy BKN009 OVC050 48 47     96%     30.13   0    
Oct 14 09:53 Calm 10 Light Rain FEW009 OVC055 48 47     96%     30.13 30.14 0    
Oct 14 09:33 Calm 10 Light Rain FEW009 BKN060 OVC095 48 47     96%     30.13   0    
Oct 14 08:53 Calm 10 Light Rain FEW075 BKN100 BKN120 47 46     97%     30.13 30.13 0    
Oct 14 07:53 Calm 9 Light Rain OVC090 47 46     97%     30.12 30.12 0   0
Oct 14 06:53 Calm 10 Cloudy OVC075 47 45     93%     30.12 30.13 0    
Oct 14 05:53 Calm 10 Cloudy BKN080 OVC100 47 46     97%     30.12 30.12 0    
Oct 14 04:53 Calm 9 Light Rain OVC085 47 45     93%     30.12 30.12 0 0  
Oct 14 03:53 Calm 10 Cloudy OVC090 47 44     90%     30.08 30.09 0    
Oct 14 02:53 Calm 10 Cloudy FEW075 OVC100 46 45     96%     30.11 30.11 0    
Oct 14 01:53 N 5 10 Cloudy FEW060 OVC100 46 43     89% 44   30.09 30.09      
Oct 14 00:53 NE 3 10 Mostly Cloudy BKN110 46 44     93% 45   30.12 30.12      
Oct 13 23:53 Calm 10 Clear CLR 46 43     89%     30.12 30.12      
Oct 13 22:53 Calm 10 Clear CLR 46 43     89%     30.11 30.11      
Oct 13 21:53 Calm 10 Clear CLR 45 42     90%     30.12 30.12      
Oct 13 20:53 SSE 5 10 Clear CLR 45 41     86% 43   30.11 30.12      
Oct 13 19:53 SSE 6 10 Clear CLR 46 41     82% 43   30.1 30.11      
Oct 13 18:53 SSE 3 10 Clear CLR 47 41     80% 46   30.08 30.09      
Oct 13 17:53 SSE 5 10 Mostly Clear FEW035 50 40     68%     30.08 30.08      
Oct 13 16:53 5 10 Partly Cloudy SCT032 51 40     65%     30.08 30.08      
Oct 13 15:53 SW 6 10 Partly Cloudy SCT028 50 39     66%     30.09 30.09      
Oct 13 14:53 SW 11 10 Mostly Cloudy BKN026 49 39     69% 44   30.1 30.1      
Oct 13 13:53 Calm 10 Cloudy OVC024 47 39     74%     30.12 30.12      
Oct 13 12:53 Calm 10 Cloudy OVC023 46 38     73%     30.13 30.13      
Oct 13 11:53 Calm 10 Cloudy OVC022 44 37     76%     30.14 30.15      
Oct 13 10:53 Calm 10 Cloudy OVC021 43 36     76%     30.14 30.14      
Oct 13 09:53 N 6 10 Cloudy OVC020 43 36     76% 39   30.12 30.13      
Oct 13 08:53 NNE 5 10 Cloudy OVC021 43 36     76% 40   30.1 30.11      
Oct 13 05:53 NNW 8 10 Cloudy OVC021 42 37     82% 37   30.03 30.03      
Oct 13 01:53 NW 8 10 Cloudy BKN016 BKN020 OVC070 42 39     89% 37   29.97 29.98     0
Oct 13 01:17 NW 7 10 Cloudy BKN015 OVC028 43 40     89% 39   29.96        
Oct 12 23:22 NW 8 8 Rain BKN015 OVC036 43 41     93% 38   29.94   0    
Oct 12 19:53 NW 6 10 Cloudy OVC065 49 38     66% 46   29.92 29.92 0   0
Oct 12 18:53 NW 7 10 Light Rain OVC075 52 37     57%     29.92 29.92 0    
Oct 12 16:53 W 6 10 Cloudy OVC110 54 35     49%     29.93 29.93      
Oct 12 08:53 Calm 10 Clear CLR 45 37     74%     30.05 30.06      
Oct 12 07:53 Calm 10 Clear CLR 42 37     82%     30.05 30.05      
Oct 11 23:53 7 10 Clear   50 39     66%     30.01 30.01      
Oct 11 21:53 NW 5 10 Clear CLR 52 40     63%     29.99 29.99      
Oct 11 17:53 NW 11 10 Clear CLR 61 43     52%     29.9 29.89      
Oct 11 13:53 W 10 10 Mostly Cloudy BKN032 63 51     65%     29.89 29.88      
May 14 18:53 SW 11 10 Mostly Clear FEW070 85 65     51%   87 29.88 29.86      
Notice The following observation data may not be complete
May 14 05:19 Calm 1.75 Fog/Mist CLR   65      %     30        
May 12 20:53 Calm 10 Clear CLR 76 67     74%   77 30 29.98      
Notice The following observation data may not be complete
May 12 00:53 WSW 5 10 Clear CLR   62      %     29.99 29.98      
May 11 16:53   10 Mostly Clear FEW075 85 61     45%   85 29.92 29.91      
Jun 11 12:53   10 Mostly Clear FEW060 86 64     48%   87 30.12 30.11      
Jun 10 18:53 S 14 10 Clear CLR 82 62     51%   83 29.99 29.97      
Jun 10 15:53 SSW 14 10 Clear CLR 84 62     48%   85 30.01 30      
Jun 10 14:53 SSW 10 10 Clear CLR 83 58     43%   83 30.02 30.01      
Jun 10 11:53 SSW 11 10 Clear CLR 80 61     52%   81 30.05 30.04      
Notice The following observation data may not be complete
Jun 09 06:24 Calm 0.75 Fog/Mist CLR   49      %     29.93        
Jun 08 05:14 Calm 4 Fog/Mist CLR 50 50     100%     30.02        
Jun 07 12:53 NE 9 10 Clear   64 54     70%     30.03 30.02      
Jun 05 17:37 SSW 6 10 Clear CLR 68 65     90%     29.73   0